Theta_e
319 319 320 320 320 321 322 322 322 322 322 322 322 322 322 321 320 319 315 322 324 334 329 319 319 324 323 319 321 319 308 304 307 309 312 317 314 321 324 323 327 332 333 344 344
318 318 318 319 319 320 321 322 321 321 321 322 322 322 321 321 316 314 325 337 338 338 317 316 315 319 314 315 317 312 306 307 313 314 312 315 314 316 319 322 323 329 338 343 343
318 317 318 318 319 319 319 320 321 321 321 321 321 321 321 320 316 319 339 337 337 332 318 320 319 314 310 314 315 312 306 311 312 313 314 312 312 315 316 317 321 322 332 337 341
317 317 317 317 318 318 318 318 319 320 319 320 320 320 321 318 309 322 338 337 336 319 318 316 315 311 307 307 312 308 310 311 312 313 311 310 312 311 312 314 321 325 324 336 337
317 317 316 316 317 316 317 317 317 317 318 318 320 320 318 317 316 329 338 332 319 317 318 316 311 310 306 308 310 308 309 311 312 311 311 311 309 309 310 318 322 321 321 322 332
316 316 316 316 315 316 316 316 317 316 316 318 320 319 317 310 327 326 322 318 317 317 316 314 312 313 310 309 309 310 310 309 310 310 310 308 309 310 314 322 321 320 320 321 324
317 316 316 315 315 316 316 317 316 316 317 319 319 319 315 317 325 325 321 319 319 317 313 315 316 312 311 307 312 310 306 308 309 310 309 311 306 307 319 323 324 323 322 329 330
317 316 315 315 316 317 318 319 319 319 319 319 319 319 316 328 326 323 322 321 321 320 318 318 317 313 311 314 310 306 306 301 308 309 310 309 302 315 321 321 324 325 325 331 338
317 315 315 316 317 318 318 318 318 319 320 320 318 319 318 321 318 322 322 317 318 318 319 319 314 309 310 306 304 305 299 302 304 310 309 307 305 319 322 322 323 325 331 333 333
315 315 316 316 317 317 317 317 319 318 320 321 323 318 323 315 319 320 322 320 316 316 315 314 312 308 307 306 299 303 302 304 304 308 309 307 310 318 320 322 323 325 328 329 329
314 314 313 315 316 317 315 319 318 317 323 316 317 316 319 323 323 318 320 318 317 315 309 312 307 305 308 310 310 309 307 305 307 313 310 309 310 315 318 319 321 324 324 324 326
313 313 313 313 315 316 316 316 321 322 314 321 320 319 321 321 312 315 320 313 311 308 312 310 305 312 311 310 307 307 305 304 308 312 310 308 309 315 316 318 320 320 320 321 322
312 312 313 313 315 314 318 320 326 325 314 318 319 317 318 319 313 313 317 315 310 308 310 306 307 311 307 306 304 304 303 303 303 308 311 308 305 311 316 318 320 319 319 319 318
312 312 312 313 311 323 322 327 327 328 309 311 312 316 318 318 313 319 319 315 312 308 310 308 311 308 306 304 305 300 304 302 302 301 297 305 295 310 312 312 315 316 316 316 317
312 312 312 311 315 318 323 325 326 325 297 312 312 322 319 315 315 314 320 315 309 310 310 306 308 306 304 304 305 301 303 301 300 298 298 298 296 307 310 309 311 314 315 317 317
312 312 311 315 316 320 325 325 322 307 297 307 312 310 311 314 314 316 315 318 317 311 312 309 313 310 308 307 306 305 301 301 301 299 292 297 297 301 307 309 310 313 314 316 318
312 312 310 319 320 327 325 320 305 300 311 307 307 309 309 309 310 311 310 309 306 301 302 306 307 309 308 303 305 303 299 292 292 292 292 302 297 304 311 312 312 312 312 314 317
310 309 312 317 318 324 322 311 300 306 307 309 309 309 305 309 308 309 307 305 310 308 303 299 298 307 307 304 299 300 300 293 287 288 293 302 297 304 315 317 316 314 314 314 314
308 322 319 323 320 323 315 302 303 307 310 308 307 304 304 307 305 306 306 305 307 307 301 298 298 306 306 305 303 298 296 302 296 297 292 295 303 310 312 312 312 312 312 311 313
313 320 319 323 324 319 311 302 307 312 313 310 304 305 301 304 304 303 302 306 305 307 308 302 296 303 304 304 304 301 303 295 297 289 287 293 295 300 306 307 309 309 309 310 312
317 318 325 327 326 316 306 306 308 313 315 308 307 304 304 303 304 302 302 304 305 304 305 303 301 299 303 300 299 299 299 300 298 295 289 288 294 310 308 309 309 310 310 309 310
317 312 326 327 309 309 307 309 306 310 312 309 309 306 305 305 303 302 300 303 307 306 301 305 302 296 299 304 306 304 301 300 294 294 297 295 294 309 311 311 312 310 309 309 310
311 313 325 324 305 304 308 309 311 311 310 308 305 307 307 304 301 303 304 307 306 304 302 306 300 293 294 299 304 300 302 302 302 303 295 291 294 308 307 307 308 307 307 309 310
313 305 313 314 312 309 307 306 307 311 308 311 307 308 306 304 306 303 303 306 306 305 314 310 303 299 292 296 299 298 301 302 301 295 295 295 297 303 304 304 305 306 307 308 310
313 308 311 302 305 307 307 305 302 302 307 310 306 305 305 302 303 302 304 305 306 308 306 306 297 299 299 300 300 299 299 299 297 298 295 297 298 302 305 307 307 308 309 309 310
308 308 310 306 309 307 304 303 301 304 306 305 303 305 305 303 304 302 304 305 304 305 304 309 298 300 297 300 300 297 299 300 300 299 298 298 298 305 307 307 307 307 308 307 309
315 315 310 304 307 305 305 304 304 306 307 308 307 305 304 305 309 310 311 310 309 307 307 306 302 299 294 300 299 295 298 299 300 302 300 295 300 305 305 306 308 308 308 308 309
Wind_Speed
15 15 14 13 13 12 12 11 11 11 12 12 12 13 12 13 14 12 14 13 12 12 6 7 15 18 16 15 18 17 14 15 19 19 15 15 2 9 6 6 8 10 13 20 16
16 15 14 13 13 13 12 11 11 11 12 12 12 12 11 11 14 22 19 10 14 12 10 13 16 16 12 18 16 17 14 19 21 18 10 11 3 4 4 9 7 11 13 17 17
16 15 14 14 14 13 13 12 11 12 12 12 12 12 10 12 12 4 14 15 14 14 17 13 14 13 15 14 18 18 15 18 20 11 8 12 12 6 7 5 7 4 14 13 17
16 16 14 13 14 13 13 13 12 12 12 11 12 11 9 7 6 7 12 11 10 13 14 15 15 15 15 17 17 16 20 19 19 14 2 9 13 12 5 7 1 3 3 16 16
16 15 14 14 13 12 13 13 12 12 12 11 10 10 8 10 14 12 11 9 10 12 15 19 18 16 15 17 17 17 15 16 14 10 12 10 11 11 10 10 8 4 3 7 14
15 15 14 14 13 13 13 12 11 12 11 11 9 8 6 12 12 14 13 13 13 15 15 13 12 14 16 14 13 12 14 12 19 12 11 10 10 7 5 8 2 3 10 15 8
14 15 14 14 13 13 13 11 11 12 11 10 7 6 10 19 11 14 13 14 18 19 15 15 14 10 10 12 15 12 8 11 14 11 8 9 10 12 12 9 5 7 4 12 8
15 16 15 14 13 13 13 12 12 13 12 9 5 9 10 17 12 13 14 14 11 12 9 9 9 12 15 14 3 11 13 15 18 18 12 7 13 11 7 4 10 4 4 13 21
16 16 15 15 14 13 12 11 14 13 10 7 7 9 10 6 12 13 14 11 10 7 8 2 8 13 14 13 12 14 13 18 5 12 10 10 8 9 3 5 9 6 17 16 14
18 16 15 15 14 12 11 10 7 5 7 10 11 8 11 14 14 13 14 13 10 10 10 9 9 12 14 13 11 9 16 15 11 12 6 10 10 9 7 9 8 7 15 10 8
20 18 17 15 14 11 12 6 7 7 13 14 15 15 16 11 10 14 14 13 13 11 13 14 13 16 12 2 9 13 9 10 9 12 1 11 15 14 8 11 11 9 11 9 7
21 19 18 16 14 10 8 8 9 9 9 23 23 22 5 12 11 16 16 12 12 15 17 12 16 5 5 7 8 11 10 10 6 11 6 10 8 16 12 11 13 12 10 9 8
22 20 19 16 13 7 13 18 16 11 10 16 22 16 13 12 15 17 16 17 14 17 13 13 9 11 3 7 5 8 10 13 15 5 8 9 13 13 13 11 12 13 11 10 8
23 21 17 14 5 10 16 21 15 6 7 12 19 18 16 17 15 20 19 18 10 16 12 8 9 2 2 6 6 8 10 13 12 12 11 12 13 22 21 15 12 14 13 12 11
22 20 16 8 13 9 11 3 8 3 5 13 18 11 11 18 11 9 11 17 16 12 6 6 6 5 6 4 7 8 12 10 13 14 15 18 13 11 15 17 16 13 13 12 12
24 20 15 8 7 18 18 9 5 7 7 12 14 12 14 15 13 12 12 10 16 9 15 9 4 0 5 5 6 8 10 15 15 13 13 18 16 18 21 20 17 16 14 15 17
24 17 9 9 11 9 10 6 9 14 9 7 15 17 17 17 11 10 14 16 13 10 12 13 13 10 1 10 11 8 10 10 12 12 14 19 19 12 24 23 20 17 15 11 14
29 17 13 10 12 14 7 9 16 16 20 6 20 14 16 13 10 12 13 14 19 17 11 11 13 20 11 10 5 11 8 8 16 14 14 6 2 9 21 24 23 15 14 13 10
33 5 6 8 15 9 7 12 15 18 9 14 17 9 11 10 3 8 10 15 15 9 10 9 6 13 7 1 2 5 9 10 8 15 15 15 10 15 16 16 16 15 13 11 10
8 9 11 9 11 8 9 16 21 12 6 9 25 11 12 14 14 11 15 10 17 5 3 7 10 9 10 2 7 8 12 8 8 10 15 14 17 12 16 15 13 11 10 10 10
7 7 6 7 6 8 11 16 20 20 16 9 17 12 13 10 11 7 9 3 1 5 1 8 7 14 6 7 11 8 11 10 11 9 11 13 2 16 15 14 13 10 10 10 8
7 6 7 6 7 9 13 20 20 16 1 5 7 11 13 14 10 11 7 15 8 5 5 4 3 11 15 15 10 6 10 14 9 10 11 12 9 9 10 11 9 8 9 8 6
9 12 7 6 9 11 16 19 18 19 16 7 5 10 9 14 10 8 9 5 8 1 2 3 5 9 14 12 12 4 9 13 12 8 13 12 11 8 6 7 8 7 11 11 9
7 9 2 3 8 13 12 12 16 9 11 27 8 9 12 10 8 8 9 3 6 3 8 3 6 9 12 16 4 12 15 13 9 9 13 15 18 13 10 11 12 10 10 8 10
6 8 11 7 13 13 11 13 15 13 15 27 9 10 11 8 13 13 11 12 11 13 7 4 10 14 16 18 20 19 19 15 15 15 16 17 19 18 10 11 9 10 12 14 12
7 7 11 14 15 10 10 12 13 13 10 4 4 10 10 10 13 13 12 7 13 14 12 10 10 12 17 17 18 21 20 21 19 19 21 22 19 17 15 16 14 9 8 10 9
9 12 7 10 15 12 3 9 12 14 12 9 12 13 10 11 9 6 15 7 9 11 13 11 11 13 17 19 19 17 16 20 21 16 16 20 19 18 16 12 10 10 9 9 7
Wind_Direction
319 316 311 307 301 298 294 293 294 295 296 299 300 297 301 307 301 251 255 257 191 175 170 211 215 226 209 226 219 225 247 247 253 260 263 268 206 147 184 225 171 153 99 122 135
322 317 313 307 299 296 294 292 295 295 293 293 297 295 308 319 285 265 246 144 139 166 205 200 203 212 210 222 208 225 227 248 254 261 318 353 344 137 184 163 262 124 120 137 150
324 318 316 310 300 298 299 303 299 293 294 299 299 305 314 313 278 267 120 148 169 186 223 202 209 204 224 211 221 216 247 246 246 359 354 336 327 332 177 186 253 228 146 158 155
324 319 317 309 300 299 295 294 293 294 296 297 301 307 312 271 304 101 154 161 160 204 229 229 213 207 225 223 223 218 232 246 270 301 287 268 276 282 283 276 200 192 27 148 169
325 320 314 306 301 295 289 286 286 290 291 290 300 310 290 237 248 136 150 148 181 201 227 230 216 210 219 226 219 225 244 246 272 257 275 260 258 250 237 74 56 0 328 258 166
326 322 313 306 301 292 287 284 282 280 279 284 291 306 248 259 101 143 155 164 188 205 237 235 223 214 235 259 248 232 238 248 252 235 225 236 253 230 144 88 76 215 240 225 205
323 323 315 307 301 292 285 275 269 265 265 268 281 270 261 245 142 169 155 187 183 209 205 222 241 244 244 264 253 270 254 261 248 233 234 209 250 224 109 98 72 254 114 60 91
324 323 318 310 299 292 287 280 271 269 264 258 256 241 260 209 241 169 192 209 176 234 276 202 245 269 252 282 254 250 238 249 229 209 212 217 245 105 99 123 116 347 141 97 53
327 323 319 310 305 296 287 282 281 273 249 216 214 227 260 125 215 186 204 190 186 207 223 326 240 232 233 238 247 215 235 221 142 144 227 182 215 107 145 110 105 128 58 68 69
329 325 320 314 307 297 288 273 312 203 209 195 266 240 250 209 192 201 200 223 184 199 211 205 221 225 230 229 235 272 218 222 167 150 236 191 145 137 133 134 124 123 88 71 49
332 328 323 317 310 301 299 209 199 192 226 223 173 223 157 190 161 184 196 228 203 199 224 192 225 221 210 221 358 322 357 354 153 121 44 278 158 142 143 133 138 124 81 76 84
333 329 323 317 312 301 272 249 338 322 277 219 256 220 226 145 179 175 183 209 213 219 215 200 229 99 38 356 332 318 312 294 284 132 179 272 214 145 162 142 139 127 125 117 100
333 328 321 316 315 266 234 256 300 304 277 245 219 223 196 197 184 173 186 220 212 225 219 255 40 77 329 312 293 289 299 320 318 300 163 252 269 145 141 120 104 97 104 100 94
332 327 323 318 283 255 230 232 243 8 270 201 200 211 173 207 199 173 190 227 220 252 231 242 75 200 233 276 294 282 325 328 309 308 276 255 249 176 143 143 152 154 143 130 107
330 324 315 290 323 281 311 290 7 278 280 289 186 157 181 218 152 187 200 227 260 247 223 19 151 165 233 309 40 302 304 307 286 273 271 261 259 125 135 164 163 148 134 128 101
327 321 316 218 221 252 283 295 253 237 196 249 161 188 203 222 174 170 209 230 275 285 263 268 56 311 277 352 304 298 287 264 252 247 249 246 248 176 177 176 143 153 150 146 130
319 309 270 299 245 261 241 253 241 237 166 237 193 196 198 199 211 178 194 204 237 229 243 245 212 204 126 269 246 209 261 268 254 227 239 241 225 121 129 126 142 188 152 136 122
317 307 212 241 261 279 268 246 245 237 229 128 277 177 209 221 190 205 237 243 215 239 278 275 229 215 143 244 340 306 296 298 305 301 312 14 156 134 130 163 171 151 136 124 110
312 186 229 230 227 261 257 234 231 255 62 324 294 211 208 229 302 252 225 260 271 9 232 272 298 69 129 148 240 330 237 293 300 284 285 286 115 121 133 142 151 151 141 125 126
307 281 241 196 175 216 239 255 261 287 300 209 243 195 227 233 190 217 257 237 243 63 81 295 291 194 160 215 248 247 289 293 234 262 264 266 273 136 157 164 169 147 143 127 135
269 253 113 159 163 229 240 248 251 265 173 191 283 292 293 293 274 260 248 198 80 105 311 283 250 265 178 206 269 196 230 228 255 285 300 299 25 139 167 170 164 170 137 145 156
301 288 125 179 219 235 244 248 264 287 267 254 273 294 301 303 283 263 273 290 128 135 202 309 290 262 255 243 238 284 316 309 291 268 249 272 287 84 130 123 118 160 147 158 146
298 295 139 218 242 237 249 267 294 354 296 252 226 268 267 269 278 274 284 64 102 181 234 147 227 257 256 257 202 235 287 270 272 292 272 282 283 119 110 132 159 193 160 158 162
280 313 128 260 256 290 314 316 309 5 343 319 282 246 264 255 267 261 263 245 130 194 65 30 283 277 279 295 311 238 231 247 232 258 270 264 274 167 176 192 190 191 191 186 168
295 345 14 309 333 331 304 297 295 296 253 226 254 249 258 240 249 253 223 257 174 140 174 194 256 269 272 279 289 288 283 273 257 259 244 261 271 290 254 216 209 219 202 190 183
3 336 336 299 295 304 286 274 279 282 301 294 284 290 296 259 263 257 250 222 287 177 197 197 234 265 280 285 283 279 278 278 264 259 271 281 262 255 258 268 265 251 183 188 201
347 335 287 294 281 264 9 347 345 338 325 304 287 290 282 292 346 287 305 282 209 232 200 196 244 242 254 268 277 272 275 274 272 272 259 256 264 257 262 258 240 220 224 194 197